Location: Ferchesar
(52.6477°N, 12.4298°E)
Time: 20:12:25
(UTC+02:00)

Tiros 1 despin weight - Pass Details

Date: 12 March 2021
Orbit: 593 x 641 km, 48.2° (Epoch: 17 April)

Event Time Altitude Azimuth Distance (km) Brightness Sun altitude
Rises 19:32:32 0° 196° (SSW) 2,835 ? -13.3°
Reaches altitude 10° 19:35:56 10° 169° (SSE) 1,947 ? -13.8°
Enters shadow 19:37:27 13° 149° (SSE) 1,774 ? -14.1°
